Location: Sungai Laei
(2.6000°N, 113.7167°E)
Time: 13:30:26
(UTC+00:00)

Cosmos 1763 Rocket - Pass Details

Date: 22 May 2022
Orbit: 732 x 780 km, 74.0° (Epoch: 06 July)

Event Time Altitude Azimuth Distance (km) Brightness Sun altitude
Rises 12:18:13 0° 351° (N) 3,230 7.2 -26.1°
Reaches altitude 10° 12:20:35 10° 352° (N) 2,311 6.3 -26.6°
Enters shadow 12:24:58 61° 15° (NNE) 880 3.7 -27.6°
